Genesis II — EILJ9 — position and weather

sailwx.info

Track history (hours):
 
Tides and Currents Weather Stations Pressure Air Temp Water Temp Dewpoint Dewpoint Depression Visibility Wind Speed Wind Dir Waves Ship Positions

Genesis II

Last reported at 2014-Oct-22 21:26 UTC. Time now 2014-Oct-25 21:15 UTC.
Position N 51°25' W 010°11'.

Length 53 m; draft 6.6 m.

Type: Fishing. MMSI: 250002424.

Date/timePositionNaut miles runAvg speedWind from/ knotsBaromVisibWave heightAir tempDewpointWater temp
2014-Oct-22 21:26N 51°25' W 010°11'4610.9
2014-Oct-22 17:11N 52°07' W 010°43'710.9
2014-Oct-22 16:33N 52°14' W 010°40'5810.5
2014-Oct-22 11:04N 53°11' W 010°31'610.8
2014-Oct-22 10:32N 53°17' W 010°31'1110.8
2014-Oct-22 09:33N 53°28' W 010°29'10 9.8
2014-Oct-22 08:33N 53°37' W 010°27'9 9.4
2014-Oct-22 07:33N 53°47' W 010°25'9 9.4
2014-Oct-22 06:33N 53°56' W 010°24'9 8.9
2014-Oct-22 05:33N 54°05' W 010°21'9 8.8
2014-Oct-22 04:33N 54°12' W 010°12'9 8.7
2014-Oct-22 03:33N 54°19' W 010°03'45 9.1
2014-Oct-21 22:33N 54°32' W 008°48'9 9.4
2014-Oct-21 21:33N 54°35' W 008°32'5 4.6
2014-Oct-21 20:33N 54°38' W 008°26'0 0.0
2014-Oct-21 19:33N 54°38' W 008°26'0 0.0
2014-Oct-21 18:33N 54°38' W 008°26'0 0.0
2014-Oct-21 17:33N 54°38' W 008°26'0 0.0
2014-Oct-21 16:33N 54°38' W 008°26'0 0.0
2014-Oct-21 15:33N 54°38' W 008°26'0 0.0
2014-Oct-21 14:33N 54°38' W 008°26'0 0.0
2014-Oct-21 13:33N 54°38' W 008°26'0 0.0
2014-Oct-21 12:33N 54°38' W 008°26'0 0.0
2014-Oct-21 11:33N 54°38' W 008°26'0 0.0
2014-Oct-21 10:33N 54°38' W 008°26'0 0.0
2014-Oct-21 09:33N 54°38' W 008°26'0 0.0
2014-Oct-21 08:33N 54°38' W 008°26'0 0.0
2014-Oct-21 07:33N 54°38' W 008°26'0 0.0
2014-Oct-21 06:33N 54°38' W 008°26'0 0.0
2014-Oct-21 05:33N 54°38' W 008°26'0 0.0
2014-Oct-21 04:33N 54°38' W 008°26'0 0.0
2014-Oct-21 03:33N 54°38' W 008°26'0 0.0
2014-Oct-21 02:33N 54°38' W 008°26'0 0.0
2014-Oct-21 01:33N 54°38' W 008°26'0 0.0
2014-Oct-21 00:33N 54°38' W 008°26'0 0.0
2014-Oct-20 23:33N 54°38' W 008°26'0 0.0
2014-Oct-20 22:33N 54°38' W 008°26'0 0.0
2014-Oct-20 21:33N 54°38' W 008°26'0 0.0
2014-Oct-20 20:33N 54°38' W 008°26'0 0.0
2014-Oct-20 19:33N 54°38' W 008°26'0 0.0
2014-Oct-20 18:33N 54°38' W 008°26'0 0.0
2014-Oct-20 17:33N 54°38' W 008°26'0 0.0
2014-Oct-20 16:33N 54°38' W 008°26'0 0.0
2014-Oct-20 15:33N 54°38' W 008°26'0 0.0
2014-Oct-20 14:33N 54°38' W 008°26'0 0.0
2014-Oct-20 13:33N 54°38' W 008°26'0 0.0
2014-Oct-20 12:33N 54°38' W 008°26'0 0.0
2014-Oct-20 11:33N 54°38' W 008°26'0 0.0
2014-Oct-20 10:33N 54°38' W 008°26'0 0.0
2014-Oct-20 09:33N 54°38' W 008°26'0 0.0
2014-Oct-20 08:33N 54°38' W 008°26'0 0.0
2014-Oct-20 07:33N 54°38' W 008°26'0 0.0
2014-Oct-20 06:34N 54°38' W 008°26'0 0.0
2014-Oct-20 05:34N 54°38' W 008°26'0 0.0
2014-Oct-20 04:33N 54°38' W 008°26'0 0.0
2014-Oct-20 03:33N 54°38' W 008°26'0 0.0
2014-Oct-20 02:33N 54°38' W 008°26'0 0.0
2014-Oct-20 01:33N 54°38' W 008°26'0 0.0
2014-Oct-20 00:33N 54°38' W 008°26'0 0.0
2014-Oct-19 23:33N 54°38' W 008°26'0 0.0
2014-Oct-19 22:33N 54°38' W 008°26'0 0.0
2014-Oct-19 21:33N 54°38' W 008°26'0 0.0
2014-Oct-19 20:33N 54°38' W 008°26'0 0.0
2014-Oct-19 19:33N 54°38' W 008°26'0 0.0
2014-Oct-19 18:33N 54°38' W 008°26'0 0.0
2014-Oct-19 17:33N 54°38' W 008°26'0 0.0
2014-Oct-19 16:33N 54°38' W 008°26'0 0.0
2014-Oct-19 15:33N 54°38' W 008°26'0 0.0
2014-Oct-19 14:33N 54°38' W 008°26'0 0.0
2014-Oct-19 13:33N 54°38' W 008°26'0 0.0
2014-Oct-19 12:33N 54°38' W 008°26'0 0.0
2014-Oct-19 11:33N 54°38' W 008°26'0 0.0
2014-Oct-19 10:33N 54°38' W 008°26'0 0.0
2014-Oct-19 09:33N 54°38' W 008°26'0 0.0
2014-Oct-19 08:33N 54°38' W 008°26'0 0.0
2014-Oct-19 07:33N 54°38' W 008°26'0 0.0
2014-Oct-19 06:33N 54°38' W 008°26'0 0.0
2014-Oct-19 05:33N 54°38' W 008°26'0 0.0
2014-Oct-19 04:33N 54°38' W 008°26'0 0.0
2014-Oct-19 03:33N 54°38' W 008°26'0 0.0
2014-Oct-19 02:33N 54°38' W 008°26'0 0.0
2014-Oct-19 01:34N 54°38' W 008°26'0 0.0
2014-Oct-19 00:33N 54°38' W 008°26'0 0.0
2014-Oct-18 23:33N 54°38' W 008°26'0 0.0
2014-Oct-18 22:33N 54°38' W 008°26'0 0.0
2014-Oct-18 21:33N 54°38' W 008°26'0 0.0
2014-Oct-18 20:33N 54°38' W 008°26'0 0.0
2014-Oct-18 19:33N 54°38' W 008°26'0 0.0
2014-Oct-18 18:33N 54°38' W 008°26'0 0.0
2014-Oct-18 17:34N 54°38' W 008°26'0 0.0
2014-Oct-18 16:33N 54°38' W 008°26'0 0.0
2014-Oct-18 15:33N 54°38' W 008°26'0 0.0
2014-Oct-18 14:33N 54°38' W 008°26'0 0.0
2014-Oct-18 13:33N 54°38' W 008°26'0 0.0
2014-Oct-18 12:33N 54°38' W 008°26'0 0.0
2014-Oct-18 11:33N 54°38' W 008°26'0 0.0
2014-Oct-18 10:33N 54°38' W 008°26'0 0.0
2014-Oct-18 09:33N 54°38' W 008°26'0 0.0
2014-Oct-18 08:33N 54°38' W 008°26'0 0.0
2014-Oct-18 07:33N 54°38' W 008°26'0 0.0
2014-Oct-18 06:33N 54°38' W 008°26'0 0.0
2014-Oct-18 05:33N 54°38' W 008°26'0 0.0
2014-Oct-18 04:33N 54°38' W 008°26'0 0.0
2014-Oct-18 03:33N 54°38' W 008°26'0 0.0
2014-Oct-18 02:33N 54°38' W 008°26'0 0.0
2014-Oct-18 01:33N 54°38' W 008°26'0 0.0
2014-Oct-18 00:33N 54°38' W 008°26'0 0.0
2014-Oct-17 23:33N 54°38' W 008°26'0 0.0
2014-Oct-17 22:33N 54°38' W 008°26'0 0.0
2014-Oct-17 21:34N 54°38' W 008°26'0 0.0
2014-Oct-17 20:33N 54°38' W 008°26'0 0.0
2014-Oct-17 19:33N 54°38' W 008°26'0 0.0
2014-Oct-17 18:33N 54°38' W 008°26'0 0.0
2014-Oct-17 17:33N 54°38' W 008°26'0 0.0
2014-Oct-17 16:33N 54°38' W 008°26'0 0.0
2014-Oct-17 15:33N 54°38' W 008°26'0 0.0
2014-Oct-17 14:33N 54°38' W 008°26'0 0.0
2014-Oct-17 13:33N 54°38' W 008°26'0 0.0
2014-Oct-17 12:33N 54°38' W 008°26'0 0.0
2014-Oct-17 11:33N 54°38' W 008°26'0 0.0
2014-Oct-17 10:33N 54°38' W 008°26'0 0.0
2014-Oct-17 09:33N 54°38' W 008°26'0 0.0
2014-Oct-17 08:33N 54°38' W 008°26'0 0.0
2014-Oct-17 07:33N 54°38' W 008°26'0 0.0
2014-Oct-17 06:33N 54°38' W 008°26'0 0.0
2014-Oct-17 05:33N 54°38' W 008°26'0 0.0
2014-Oct-17 04:33N 54°38' W 008°26'0 0.0
2014-Oct-17 03:33N 54°38' W 008°26'0 0.0
2014-Oct-17 02:33N 54°38' W 008°26'0 0.0
2014-Oct-17 01:33N 54°38' W 008°26'0 0.0
2014-Oct-17 00:33N 54°38' W 008°26'0 0.0
2014-Oct-16 23:33N 54°38' W 008°26'0 0.0
2014-Oct-16 22:33N 54°38' W 008°26'0 0.0
2014-Oct-16 21:33N 54°38' W 008°26'0 0.0
2014-Oct-16 20:33N 54°38' W 008°26'0 0.0
2014-Oct-16 19:33N 54°38' W 008°26'1 1.1
2014-Oct-16 18:33N 54°37' W 008°27'10 9.8
2014-Oct-16 17:33N 54°37' W 008°44'23110.8
2014-Oct-15 20:11N 58°08' W 005°54'711.6
2014-Oct-15 19:33N 58°13' W 005°45'79 2.6
2014-Oct-14 13:33N 59°12' W 004°02'1413.9
2014-Oct-14 12:33N 59°02' W 004°22'30214.2
2014-Oct-13 15:22N 54°37' W 008°43'4 4.4
2014-Oct-13 14:30N 54°35' W 008°37'5 4.8
2014-Oct-13 13:33N 54°37' W 008°44'7 7.1
2014-Oct-13 12:33N 54°35' W 008°32'5 4.6
2014-Oct-13 11:33N 54°38' W 008°26'0 0.0
2014-Oct-13 10:33N 54°38' W 008°26'0 0.0
2014-Oct-13 09:33N 54°38' W 008°26'0 0.0
2014-Oct-13 08:33N 54°38' W 008°26'0 0.0
2014-Oct-13 07:33N 54°38' W 008°26'0 0.0
2014-Oct-13 06:33N 54°38' W 008°26'0 0.0
2014-Oct-13 05:33N 54°38' W 008°26'0 0.0
2014-Oct-13 04:33N 54°38' W 008°26'0 0.0
2014-Oct-13 03:33N 54°38' W 008°26'0 0.0
2014-Oct-13 02:33N 54°38' W 008°26'0 0.0
2014-Oct-13 01:33N 54°38' W 008°26'0 0.0
2014-Oct-13 00:33N 54°38' W 008°26'0 0.0
2014-Oct-12 23:33N 54°38' W 008°26'0 0.0
2014-Oct-12 22:33N 54°38' W 008°26'0 0.0
2014-Oct-12 21:33N 54°38' W 008°26'  
Track history (hours):
 
Tides and Currents Weather Stations Pressure Air Temp Water Temp Dewpoint Dewpoint Depression Visibility Wind Speed Wind Dir Waves Ship Positions

Genesis II

Last reported at 2014-Oct-22 21:26 UTC. Time now 2014-Oct-25 21:15 UTC.
Position N 51°25' W 010°11'.

Length 53 m; draft 6.6 m.

Type: Fishing. MMSI: 250002424.

Date/timePositionNaut miles runAvg speedWind from/ knotsBaromVisibWave heightAir tempDewpointWater temp
2014-Oct-22 21:26N 51°25' W 010°11'4610.9
2014-Oct-22 17:11N 52°07' W 010°43'710.9
2014-Oct-22 16:33N 52°14' W 010°40'5810.5
2014-Oct-22 11:04N 53°11' W 010°31'610.8
2014-Oct-22 10:32N 53°17' W 010°31'1110.8
2014-Oct-22 09:33N 53°28' W 010°29'10 9.8
2014-Oct-22 08:33N 53°37' W 010°27'9 9.4
2014-Oct-22 07:33N 53°47' W 010°25'9 9.4
2014-Oct-22 06:33N 53°56' W 010°24'9 8.9
2014-Oct-22 05:33N 54°05' W 010°21'9 8.8
2014-Oct-22 04:33N 54°12' W 010°12'9 8.7
2014-Oct-22 03:33N 54°19' W 010°03'45 9.1
2014-Oct-21 22:33N 54°32' W 008°48'9 9.4
2014-Oct-21 21:33N 54°35' W 008°32'5 4.6
2014-Oct-21 20:33N 54°38' W 008°26'0 0.0
2014-Oct-21 19:33N 54°38' W 008°26'0 0.0
2014-Oct-21 18:33N 54°38' W 008°26'0 0.0
2014-Oct-21 17:33N 54°38' W 008°26'0 0.0
2014-Oct-21 16:33N 54°38' W 008°26'0 0.0
2014-Oct-21 15:33N 54°38' W 008°26'0 0.0
2014-Oct-21 14:33N 54°38' W 008°26'0 0.0
2014-Oct-21 13:33N 54°38' W 008°26'0 0.0
2014-Oct-21 12:33N 54°38' W 008°26'0 0.0
2014-Oct-21 11:33N 54°38' W 008°26'0 0.0
2014-Oct-21 10:33N 54°38' W 008°26'0 0.0
2014-Oct-21 09:33N 54°38' W 008°26'0 0.0
2014-Oct-21 08:33N 54°38' W 008°26'0 0.0
2014-Oct-21 07:33N 54°38' W 008°26'0 0.0
2014-Oct-21 06:33N 54°38' W 008°26'0 0.0
2014-Oct-21 05:33N 54°38' W 008°26'0 0.0
2014-Oct-21 04:33N 54°38' W 008°26'0 0.0
2014-Oct-21 03:33N 54°38' W 008°26'0 0.0
2014-Oct-21 02:33N 54°38' W 008°26'0 0.0
2014-Oct-21 01:33N 54°38' W 008°26'0 0.0
2014-Oct-21 00:33N 54°38' W 008°26'0 0.0
2014-Oct-20 23:33N 54°38' W 008°26'0 0.0
2014-Oct-20 22:33N 54°38' W 008°26'0 0.0
2014-Oct-20 21:33N 54°38' W 008°26'0 0.0
2014-Oct-20 20:33N 54°38' W 008°26'0 0.0
2014-Oct-20 19:33N 54°38' W 008°26'0 0.0
2014-Oct-20 18:33N 54°38' W 008°26'0 0.0
2014-Oct-20 17:33N 54°38' W 008°26'0 0.0
2014-Oct-20 16:33N 54°38' W 008°26'0 0.0
2014-Oct-20 15:33N 54°38' W 008°26'0 0.0
2014-Oct-20 14:33N 54°38' W 008°26'0 0.0
2014-Oct-20 13:33N 54°38' W 008°26'0 0.0
2014-Oct-20 12:33N 54°38' W 008°26'0 0.0
2014-Oct-20 11:33N 54°38' W 008°26'0 0.0
2014-Oct-20 10:33N 54°38' W 008°26'0 0.0
2014-Oct-20 09:33N 54°38' W 008°26'0 0.0
2014-Oct-20 08:33N 54°38' W 008°26'0 0.0
2014-Oct-20 07:33N 54°38' W 008°26'0 0.0
2014-Oct-20 06:34N 54°38' W 008°26'0 0.0
2014-Oct-20 05:34N 54°38' W 008°26'0 0.0
2014-Oct-20 04:33N 54°38' W 008°26'0 0.0
2014-Oct-20 03:33N 54°38' W 008°26'0 0.0
2014-Oct-20 02:33N 54°38' W 008°26'0 0.0
2014-Oct-20 01:33N 54°38' W 008°26'0 0.0
2014-Oct-20 00:33N 54°38' W 008°26'0 0.0
2014-Oct-19 23:33N 54°38' W 008°26'0 0.0
2014-Oct-19 22:33N 54°38' W 008°26'0 0.0
2014-Oct-19 21:33N 54°38' W 008°26'0 0.0
2014-Oct-19 20:33N 54°38' W 008°26'0 0.0
2014-Oct-19 19:33N 54°38' W 008°26'0 0.0
2014-Oct-19 18:33N 54°38' W 008°26'0 0.0
2014-Oct-19 17:33N 54°38' W 008°26'0 0.0
2014-Oct-19 16:33N 54°38' W 008°26'0 0.0
2014-Oct-19 15:33N 54°38' W 008°26'0 0.0
2014-Oct-19 14:33N 54°38' W 008°26'0 0.0
2014-Oct-19 13:33N 54°38' W 008°26'0 0.0
2014-Oct-19 12:33N 54°38' W 008°26'0 0.0
2014-Oct-19 11:33N 54°38' W 008°26'0 0.0
2014-Oct-19 10:33N 54°38' W 008°26'0 0.0
2014-Oct-19 09:33N 54°38' W 008°26'0 0.0
2014-Oct-19 08:33N 54°38' W 008°26'0 0.0
2014-Oct-19 07:33N 54°38' W 008°26'0 0.0
2014-Oct-19 06:33N 54°38' W 008°26'0 0.0
2014-Oct-19 05:33N 54°38' W 008°26'0 0.0
2014-Oct-19 04:33N 54°38' W 008°26'0 0.0
2014-Oct-19 03:33N 54°38' W 008°26'0 0.0
2014-Oct-19 02:33N 54°38' W 008°26'0 0.0
2014-Oct-19 01:34N 54°38' W 008°26'0 0.0
2014-Oct-19 00:33N 54°38' W 008°26'0 0.0
2014-Oct-18 23:33N 54°38' W 008°26'0 0.0
2014-Oct-18 22:33N 54°38' W 008°26'0 0.0
2014-Oct-18 21:33N 54°38' W 008°26'0 0.0
2014-Oct-18 20:33N 54°38' W 008°26'0 0.0
2014-Oct-18 19:33N 54°38' W 008°26'0 0.0
2014-Oct-18 18:33N 54°38' W 008°26'0 0.0
2014-Oct-18 17:34N 54°38' W 008°26'0 0.0
2014-Oct-18 16:33N 54°38' W 008°26'0 0.0
2014-Oct-18 15:33N 54°38' W 008°26'0 0.0
2014-Oct-18 14:33N 54°38' W 008°26'0 0.0
2014-Oct-18 13:33N 54°38' W 008°26'0 0.0
2014-Oct-18 12:33N 54°38' W 008°26'0 0.0
2014-Oct-18 11:33N 54°38' W 008°26'0 0.0
2014-Oct-18 10:33N 54°38' W 008°26'0 0.0
2014-Oct-18 09:33N 54°38' W 008°26'0 0.0
2014-Oct-18 08:33N 54°38' W 008°26'0 0.0
2014-Oct-18 07:33N 54°38' W 008°26'0 0.0
2014-Oct-18 06:33N 54°38' W 008°26'0 0.0
2014-Oct-18 05:33N 54°38' W 008°26'0 0.0
2014-Oct-18 04:33N 54°38' W 008°26'0 0.0
2014-Oct-18 03:33N 54°38' W 008°26'0 0.0
2014-Oct-18 02:33N 54°38' W 008°26'0 0.0
2014-Oct-18 01:33N 54°38' W 008°26'0 0.0
2014-Oct-18 00:33N 54°38' W 008°26'0 0.0
2014-Oct-17 23:33N 54°38' W 008°26'0 0.0
2014-Oct-17 22:33N 54°38' W 008°26'0 0.0
2014-Oct-17 21:34N 54°38' W 008°26'0 0.0
2014-Oct-17 20:33N 54°38' W 008°26'0 0.0
2014-Oct-17 19:33N 54°38' W 008°26'0 0.0
2014-Oct-17 18:33N 54°38' W 008°26'0 0.0
2014-Oct-17 17:33N 54°38' W 008°26'0 0.0
2014-Oct-17 16:33N 54°38' W 008°26'0 0.0
2014-Oct-17 15:33N 54°38' W 008°26'0 0.0
2014-Oct-17 14:33N 54°38' W 008°26'0 0.0
2014-Oct-17 13:33N 54°38' W 008°26'0 0.0
2014-Oct-17 12:33N 54°38' W 008°26'0 0.0
2014-Oct-17 11:33N 54°38' W 008°26'0 0.0
2014-Oct-17 10:33N 54°38' W 008°26'0 0.0
2014-Oct-17 09:33N 54°38' W 008°26'0 0.0
2014-Oct-17 08:33N 54°38' W 008°26'0 0.0
2014-Oct-17 07:33N 54°38' W 008°26'0 0.0
2014-Oct-17 06:33N 54°38' W 008°26'0 0.0
2014-Oct-17 05:33N 54°38' W 008°26'0 0.0
2014-Oct-17 04:33N 54°38' W 008°26'0 0.0
2014-Oct-17 03:33N 54°38' W 008°26'0 0.0
2014-Oct-17 02:33N 54°38' W 008°26'0 0.0
2014-Oct-17 01:33N 54°38' W 008°26'0 0.0
2014-Oct-17 00:33N 54°38' W 008°26'0 0.0
2014-Oct-16 23:33N 54°38' W 008°26'0 0.0
2014-Oct-16 22:33N 54°38' W 008°26'0 0.0
2014-Oct-16 21:33N 54°38' W 008°26'0 0.0
2014-Oct-16 20:33N 54°38' W 008°26'0 0.0
2014-Oct-16 19:33N 54°38' W 008°26'1 1.1
2014-Oct-16 18:33N 54°37' W 008°27'10 9.8
2014-Oct-16 17:33N 54°37' W 008°44'23110.8
2014-Oct-15 20:11N 58°08' W 005°54'711.6
2014-Oct-15 19:33N 58°13' W 005°45'79 2.6
2014-Oct-14 13:33N 59°12' W 004°02'1413.9
2014-Oct-14 12:33N 59°02' W 004°22'30214.2
2014-Oct-13 15:22N 54°37' W 008°43'4 4.4
2014-Oct-13 14:30N 54°35' W 008°37'5 4.8
2014-Oct-13 13:33N 54°37' W 008°44'7 7.1
2014-Oct-13 12:33N 54°35' W 008°32'5 4.6
2014-Oct-13 11:33N 54°38' W 008°26'0 0.0
2014-Oct-13 10:33N 54°38' W 008°26'0 0.0
2014-Oct-13 09:33N 54°38' W 008°26'0 0.0
2014-Oct-13 08:33N 54°38' W 008°26'0 0.0
2014-Oct-13 07:33N 54°38' W 008°26'0 0.0
2014-Oct-13 06:33N 54°38' W 008°26'0 0.0
2014-Oct-13 05:33N 54°38' W 008°26'0 0.0
2014-Oct-13 04:33N 54°38' W 008°26'0 0.0
2014-Oct-13 03:33N 54°38' W 008°26'0 0.0
2014-Oct-13 02:33N 54°38' W 008°26'0 0.0
2014-Oct-13 01:33N 54°38' W 008°26'0 0.0
2014-Oct-13 00:33N 54°38' W 008°26'0 0.0
2014-Oct-12 23:33N 54°38' W 008°26'0 0.0
2014-Oct-12 22:33N 54°38' W 008°26'0 0.0
2014-Oct-12 21:33N 54°38' W 008°26'  

Dump ship's entire track history